Date_and_time,latitude,longitude,wind_speed,RelWindDirFrom,WindDirFrom,air_pressure,air_temperature,relative_humidity,Temp,platform_speed_wrt_ground,air_pressure_at_mean_sea_level,platform_orientation
2018-08-03 23:40,50.6304483333333,-96.9807633333333,11.7,13.7,126,977.33,25.1,72,21.32,0.0,1002.58,235.4
2018-08-03 23:50,50.6304483333333,-96.980765,11.7,13.7,126,977.17,25.3,71,21.35,0.0,1002.27,235.4
2018-08-04 00:00,50.630445,-96.9807616666667,12.3,13.8,126,976.97,25.4,70,21.38,0.0,1001.97,237.8
2018-08-04 00:10,50.6304433333333,-96.9807616666667,12.2,16.9,127,977.00,25.4,70,21.41,0.0,1002.15,237.8
2018-08-04 00:20,50.630445,-96.9807866666667,11.7,15.6,132,976.81,25.5,68,21.44,0.0,1002.01,237.8
2018-08-04 00:30,50.6304483333333,-96.9807733333333,14.8,18.4,136,976.47,25.5,67,21.42,0.0,1001.67,237.8
2018-08-04 00:40,50.6304583333333,-96.9807666666667,16.7,19.2,141,976.24,25.2,68,21.47,0.0,1001.45,237.8
2018-08-04 00:50,50.630465,-96.9807616666667,17.9,21.1,144,976.12,25.0,68,21.52,0.0,1001.33,237.8
2018-08-04 01:00,50.6304566666667,-96.980765,18.1,20.8,139,976.14,24.7,70,21.51,0.0,1001.35,360.0
2018-08-04 01:10,50.6304566666667,-96.9807666666667,16.7,20.2,137,976.28,24.6,70,21.49,0.0,1001.50,360.0
2018-08-04 01:20,50.6304566666667,-96.980765,16.5,21.1,133,976.24,24.9,70,21.48,0.0,1001.44,360.0
2018-08-04 01:30,50.6304383333333,-96.9807583333333,17.2,22.2,131,975.86,24.8,71,21.50,0.0,1001.06,360.0
2018-08-04 01:40,50.63045,-96.98077,18.0,23.8,133,975.57,24.8,69,21.50,0.0,1000.75,360.0
2018-08-04 01:50,50.6304483333333,-96.980765,18.9,24.9,131,975.36,24.8,70,21.51,0.0,1000.52,360.0
2018-08-04 02:00,50.6304483333333,-96.98077,16.3,21.7,135,975.88,24.3,72,21.49,0.0,1001.08,345.5
2018-08-04 02:10,50.63045,-96.98077,16.8,20.9,141,976.50,24.0,73,21.47,0.0,1001.73,345.5
2018-08-04 02:20,50.63045,-96.9807716666667,12.3,16.5,155,977.13,23.5,77,21.45,0.0,1002.40,345.5
2018-08-04 02:30,50.63045,-96.9807716666667,15.0,17.6,141,976.60,23.2,80,21.44,0.0,1001.88,345.5
2018-08-04 02:40,50.6304516666667,-96.98077,11.4,14.8,137,977.19,23.1,81,21.43,0.0,1002.50,345.5
2018-08-04 02:50,50.6304533333333,-96.9807683333333,2.8,10.3,143,978.11,23.1,83,21.43,0.0,1003.46,345.5
2018-08-04 03:00,50.6304533333333,-96.9807683333333,2.9,5.8,313,978.88,23.4,82,21.41,0.0,1004.24,345.5
2018-08-04 03:10,50.6304533333333,-96.9807683333333,9.0,16.3,9,979.27,23.4,84,21.42,0.0,1004.62,345.5
2018-08-04 03:20,50.6304533333333,-96.9807666666667,25.1,35.4,12,979.29,21.2,80,21.50,0.0,1004.74,345.5
2018-08-04 03:30,50.6304533333333,-96.9807666666667,25.1,31.1,4,979.70,20.4,78,21.55,0.0,1005.20,345.5
2018-08-04 03:40,50.6304533333333,-96.9807666666667,20.7,28.2,359,980.18,20.2,76,21.69,0.0,1005.70,345.5
2018-08-04 03:50,50.6304516666667,-96.9807666666667,20.9,24.2,10,980.05,19.7,79,21.21,0.0,1005.61,345.5
2018-08-04 04:00,50.6304516666667,-96.9807666666667,22.6,26.1,22,979.47,19.5,84,21.42,0.0,1005.04,90.0
2018-08-04 04:10,50.63042,-96.9807416666667,22.6,27.3,43,979.08,19.1,91,21.43,0.0,1004.67,90.0
2018-08-04 04:20,50.6304416666667,-96.980765,23.0,27.5,59,978.88,19.0,94,21.42,0.0,1004.49,90.0
2018-08-04 04:30,50.63045,-96.980765,18.8,22.2,64,979.90,19.1,93,21.41,0.0,1005.53,90.0
2018-08-04 04:40,50.6304516666667,-96.980765,20.9,27.5,65,979.36,19.3,92,21.41,0.0,1004.97,90.0
2018-08-04 04:50,50.63044,-96.98076,19.8,25.2,56,979.47,19.4,95,21.42,0.0,1005.07,90.0
2018-08-04 05:00,50.6304433333333,-96.9807566666667,17.1,22.2,73,979.55,19.9,94,21.24,0.0,1005.12,167.4
2018-08-04 05:10,50.630445,-96.9807566666667,14.0,21.4,64,980.18,20.0,95,21.12,0.0,1005.86,167.4
2018-08-04 05:20,50.6304466666667,-96.9807566666667,3.6,12.6,336,981.06,19.6,92,21.21,0.0,1006.82,167.4
2018-08-04 05:30,50.6304466666667,-96.9807566666667,15.9,25.2,81,979.49,19.4,99,21.08,0.0,1005.23,167.4
2018-08-04 05:40,50.6304466666667,-96.9807583333333,26.9,32.7,92,977.28,18.8,101,21.07,0.0,1003.01,167.4
2018-08-04 05:50,50.6304483333333,-96.98076,31.4,39.5,99,976.88,18.9,101,21.01,0.0,1002.60,167.4
2018-08-04 06:00,50.6304466666667,-96.98076,31.0,42.1,101,977.19,19.3,99,20.96,0.0,1002.92,131.7
2018-08-04 06:10,50.6304566666667,-96.98077,32.1,42.7,106,976.36,19.6,99,20.94,0.0,1002.06,131.7
2018-08-04 06:20,50.6304616666667,-96.9807616666667,31.1,38.8,109,975.91,20.0,93,20.93,0.0,1001.57,131.7
2018-08-04 06:30,50.6304366666667,-96.9807566666667,31.6,40.9,114,975.88,20.0,92,20.94,0.0,1001.53,131.7
2018-08-04 06:40,50.63045,-96.980755,35.3,43.6,115,975.99,19.7,90,20.96,0.0,1001.66,131.7
2018-08-04 06:50,50.6304683333333,-96.9807733333333,30.9,38.9,118,976.43,19.7,89,20.94,0.0,1002.09,131.7
2018-08-04 07:00,50.63046,-96.980775,27.8,36.6,119,976.70,20.2,88,20.93,0.0,1002.34,311.7
2018-08-04 07:10,50.6304533333333,-96.9807566666667,23.0,31.1,140,976.92,20.3,88,20.94,0.0,1002.58,311.7
2018-08-04 07:20,50.630455,-96.9807733333333,26.4,35.8,146,977.13,19.9,87,20.93,0.0,1002.82,311.7
2018-08-04 07:30,50.6304533333333,-96.980755,23.9,35.3,145,977.64,19.9,87,20.93,0.0,1003.37,311.7
2018-08-04 07:40,50.6304433333333,-96.9807766666667,23.2,32.3,144,977.78,19.7,89,20.93,0.0,1003.52,311.7
2018-08-04 07:50,50.63045,-96.9807716666667,22.6,31.1,140,977.54,19.6,89,20.92,0.0,1003.26,311.7
2018-08-04 08:00,50.63046,-96.9807783333333,25.6,35.6,134,977.04,20.0,84,20.92,0.0,1002.71,317.0
2018-08-04 08:10,50.6304583333333,-96.9807583333333,26.5,33.1,142,976.87,19.5,83,20.91,0.0,1002.54,317.0
2018-08-04 08:20,50.6304516666667,-96.9807716666667,25.2,33.3,144,976.99,19.5,83,20.92,0.0,1002.67,317.0
2018-08-04 08:30,50.63044,-96.980765,22.0,29.6,150,977.07,19.4,85,20.93,0.0,1002.76,317.0
2018-08-04 08:40,50.6304483333333,-96.980755,21.0,35.9,143,976.93,19.6,84,20.93,0.0,1002.61,317.0
2018-08-04 08:50,50.6304566666667,-96.98077,17.9,23.0,148,977.35,19.3,85,20.91,0.0,1003.03,317.0
2018-08-04 09:00,50.6304483333333,-96.980765,18.1,25.3,153,977.69,19.4,86,20.92,0.0,1003.38,270.0
2018-08-04 09:10,50.63045,-96.98076,19.5,24.9,150,977.70,19.5,84,20.93,0.0,1003.40,270.0
2018-08-04 09:20,50.6304316666667,-96.9807566666667,19.2,25.2,151,977.74,19.4,85,20.95,0.0,1003.45,270.0
2018-08-04 09:30,50.6304516666667,-96.9807666666667,17.8,24.5,152,977.72,19.4,84,20.95,0.0,1003.44,270.0
2018-08-04 09:40,50.6304683333333,-96.980765,15.2,19.7,161,977.71,19.5,84,20.93,0.0,1003.42,270.0
2018-08-04 09:50,50.630455,-96.9807633333333,14.0,18.5,166,977.63,19.6,82,20.90,0.0,1003.33,270.0
2018-08-04 10:00,50.6304533333333,-96.9807633333333,14.8,19.3,161,977.75,19.8,81,20.89,0.0,1003.45,167.4
2018-08-04 10:10,50.6304516666667,-96.9807633333333,16.6,22.8,164,977.83,19.7,82,20.89,0.0,1003.54,167.4
2018-08-04 10:20,50.6304516666667,-96.9807616666667,15.8,21.4,162,977.88,19.7,84,20.90,0.0,1003.60,167.4
2018-08-04 10:30,50.63045,-96.9807633333333,13.8,20.5,177,978.16,19.6,85,20.87,0.0,1003.89,167.4
2018-08-04 10:40,50.6304516666667,-96.9807616666667,11.1,15.6,184,978.31,19.4,89,20.87,0.0,1004.05,167.4
2018-08-04 10:50,50.630455,-96.980755,10.6,14.1,183,978.50,19.5,92,20.86,0.0,1004.24,167.4
2018-08-04 11:00,50.6304466666667,-96.9807666666667,9.7,15.0,186,978.55,19.6,93,20.85,0.0,1004.29,130.6
2018-08-04 11:10,50.6304516666667,-96.9807683333333,9.7,12.3,190,978.64,19.4,94,20.84,0.0,1004.39,130.6
2018-08-04 11:20,50.6304533333333,-96.9807666666667,7.9,11.4,193,978.63,19.2,97,20.85,0.0,1004.39,130.6
2018-08-04 11:30,50.6304533333333,-96.9807666666667,7.5,11.0,199,978.69,19.0,99,20.86,0.0,1004.45,130.6
2018-08-04 11:40,50.630455,-96.9807666666667,7.0,9.2,204,978.93,18.9,99,20.85,0.0,1004.71,130.6
2018-08-04 11:50,50.6304516666667,-96.980775,8.3,11.6,198,979.05,18.7,100,20.83,0.0,1004.83,130.6
2018-08-04 12:00,50.6304483333333,-96.980725,10.7,14.9,192,978.89,18.8,100,20.82,0.0,1004.66,90.0
2018-08-04 12:10,50.630455,-96.98076,11.5,14.7,185,978.58,18.9,100,20.83,0.0,1004.34,90.0
2018-08-04 12:20,50.63045,-96.9807566666667,12.8,16.7,182,978.20,19.0,100,20.82,0.0,1003.95,90.0
2018-08-04 12:30,50.6304483333333,-96.98076,12.2,15.8,179,977.78,19.4,100,20.81,0.0,1003.50,90.0
2018-08-04 12:40,50.63045,-96.98076,10.5,16.0,185,977.54,19.7,99,20.81,0.0,1003.24,90.0
2018-08-04 12:50,50.6304516666667,-96.98076,9.7,14.4,181,977.25,20.0,98,20.81,0.0,1002.94,90.0
2018-08-04 13:00,50.6304516666667,-96.98076,11.2,13.4,173,977.02,20.0,98,20.80,0.0,1002.70,90.0
2018-08-04 13:10,50.6304516666667,-96.9807616666667,10.8,13.3,175,976.95,20.0,98,20.78,0.0,1002.64,90.0
2018-08-04 13:20,50.63045,-96.9807633333333,11.5,14.9,173,976.64,20.1,96,20.78,0.0,1002.32,90.0
2018-08-04 13:30,50.6304516666667,-96.9807633333333,12.8,15.7,165,976.63,20.2,97,20.78,0.0,1002.32,90.0
2018-08-04 13:40,50.6304466666667,-96.9807733333333,11.7,19.0,177,976.81,20.3,95,20.80,0.0,1002.50,90.0
2018-08-04 13:50,50.63044,-96.9807616666667,13.1,17.4,170,976.78,20.3,94,20.80,0.0,1002.47,90.0
2018-08-04 14:00,50.63044,-96.9807633333333,10.0,12.6,167,976.64,20.3,95,20.80,0.0,1002.32,142.0
2018-08-04 14:10,50.6304433333333,-96.9807616666667,11.3,14.5,167,976.60,20.5,93,20.80,0.0,1002.27,142.0
2018-08-04 14:20,50.6304433333333,-96.9807616666667,9.9,12.7,178,976.86,20.6,93,20.81,0.0,1002.51,142.0
2018-08-04 14:30,50.6304433333333,-96.9807616666667,10.0,12.4,184,976.89,20.7,90,20.81,0.0,1002.52,142.0
2018-08-04 14:40,50.6304366666667,-96.980755,8.8,12.2,193,977.02,20.8,91,20.79,0.0,1002.64,142.0
2018-08-04 14:50,50.630445,-96.98077,9.2,13.3,187,976.89,20.6,92,20.79,0.0,1002.52,142.0
2018-08-04 15:00,50.6304483333333,-96.9807683333333,10.4,13.9,182,976.68,20.4,93,20.81,0.0,1002.31,270.0
2018-08-04 15:10,50.6304483333333,-96.9807683333333,9.7,13.8,208,977.14,20.5,93,20.82,0.0,1002.77,270.0
2018-08-04 15:20,50.63045,-96.9807666666667,8.9,13.8,203,976.84,20.4,93,20.82,0.0,1002.47,270.0
2018-08-04 15:30,50.630445,-96.9807316666667,7.7,10.8,204,976.98,20.4,93,20.83,0.0,1002.60,270.0
2018-08-04 15:40,50.63045,-96.9807616666667,9.3,12.5,196,977.36,20.4,93,20.83,0.0,1003.00,270.0
2018-08-04 15:50,50.6304766666667,-96.9807833333333,8.9,12.9,198,977.53,20.3,94,20.83,0.0,1003.17,270.0
2018-08-04 16:00,50.63046,-96.9807616666667,8.5,12.5,212,977.71,20.3,94,20.82,0.0,1003.35,38.0
2018-08-04 16:10,50.630455,-96.980765,7.5,12.8,238,978.08,20.4,94,20.83,0.0,1003.72,38.0
2018-08-04 16:20,50.630455,-96.9807683333333,6.3,9.4,260,977.99,20.6,94,20.83,0.0,1003.61,38.0
2018-08-04 16:30,50.6304433333333,-96.9807433333333,6.8,10.7,258,977.76,20.7,92,20.83,0.0,1003.37,38.0
2018-08-04 16:40,50.6304483333333,-96.9807616666667,7.1,11.2,252,977.68,20.8,91,20.84,0.0,1003.29,38.0
2018-08-04 16:50,50.6304466666667,-96.9807583333333,7.5,11.8,257,977.61,20.9,90,20.85,0.0,1003.22,38.0
2018-08-04 17:00,50.6304433333333,-96.9807583333333,6.9,11.8,272,977.34,21.2,88,20.87,0.0,1002.93,90.0
2018-08-04 17:10,50.630445,-96.98076,9.3,15.8,261,977.13,21.3,86,20.84,0.0,1002.71,90.0
2018-08-04 17:20,50.6304466666667,-96.98076,6.4,10.1,242,977.32,21.1,88,20.80,0.0,1002.92,90.0
2018-08-04 17:30,50.6304483333333,-96.9807633333333,3.0,8.4,212,977.42,20.9,89,20.84,0.0,1003.03,90.0
2018-08-04 17:40,50.630455,-96.9807783333333,5.2,7.8,172,977.53,20.7,91,20.89,0.0,1003.15,90.0
2018-08-04 17:50,50.6304616666667,-96.980775,3.1,5.2,136,977.57,21.0,90,20.85,0.0,1003.19,90.0
2018-08-04 18:00,50.630455,-96.9807533333333,5.0,8.5,110,977.44,21.6,90,20.86,0.0,1003.01,60.8
2018-08-04 18:10,50.6304566666667,-96.9807616666667,9.3,11.1,114,977.14,21.4,97,20.88,0.0,1002.72,60.8
2018-08-04 18:20,50.6304583333333,-96.9807616666667,8.7,11.2,105,976.79,21.1,99,20.83,0.0,1002.36,60.8
2018-08-04 18:30,50.6304566666667,-96.9807633333333,8.0,9.3,101,976.73,21.2,99,20.83,0.0,1002.29,60.8
2018-08-04 18:40,50.63043,-96.9807566666667,6.4,8.8,108,976.75,21.2,99,20.85,0.0,1002.31,60.8
2018-08-04 18:50,50.6304383333333,-96.9807983333333,0.3,3.8,28,976.95,21.3,95,20.83,0.0,1002.50,60.8
2018-08-04 19:00,50.6304533333333,-96.98078,1.4,3.9,300,977.27,21.4,89,20.80,0.0,1002.81,252.3
2018-08-04 19:10,50.6304533333333,-96.9807816666667,3.8,5.6,83,977.14,22.3,87,20.75,0.0,1002.65,252.3
2018-08-04 19:20,50.6304566666667,-96.9807833333333,5.7,6.9,83,977.17,22.0,91,20.81,0.0,1002.70,252.3
2018-08-04 19:30,50.6304583333333,-96.9807716666667,7.1,8.5,101,977.20,22.2,93,20.95,0.0,1002.74,252.3
2018-08-04 19:40,50.6304583333333,-96.9807716666667,5.0,7.1,94,977.08,22.4,90,20.93,0.0,1002.59,252.3
2018-08-04 19:50,50.6304566666667,-96.9807683333333,7.5,8.7,102,977.04,22.5,92,20.83,0.0,1002.52,252.3
2018-08-04 20:00,50.6304566666667,-96.9807716666667,6.8,8.5,118,976.95,22.0,95,20.74,0.0,1002.46,323.4
2018-08-04 20:10,50.6304566666667,-96.98077,6.8,8.1,116,977.01,21.9,96,20.82,0.0,1002.54,323.4
2018-08-04 20:20,50.630455,-96.98077,5.6,7.0,118,976.99,22.0,95,20.84,0.0,1002.50,323.4
2018-08-04 20:30,50.6304483333333,-96.9807866666667,7.3,9.1,130,977.05,21.9,95,20.80,0.0,1002.57,323.4
2018-08-04 20:40,50.6304466666667,-96.9807683333333,8.6,11.3,130,977.12,21.7,95,20.77,0.0,1002.65,323.4
2018-08-04 20:50,50.630445,-96.9807733333333,8.8,10.9,141,977.02,21.3,93,20.92,0.0,1002.56,323.4
2018-08-04 21:00,50.6304433333333,-96.9807683333333,9.5,11.5,147,976.86,20.9,95,20.87,0.0,1002.37,216.6
2018-08-04 21:10,50.6304566666667,-96.98077,8.2,9.7,150,976.78,20.9,94,20.84,0.0,1002.30,216.6
2018-08-04 21:20,50.6304633333333,-96.9807783333333,8.4,11.9,148,976.65,21.0,94,20.95,0.0,1002.16,216.6
2018-08-04 21:30,50.630435,-96.9807716666667,10.4,13.1,146,976.53,21.1,94,20.98,0.0,1002.02,216.6
2018-08-04 21:40,50.6304466666667,-96.9807633333333,10.5,12.7,150,976.62,21.1,95,20.96,0.0,1002.11,216.6
2018-08-04 21:50,50.630455,-96.980755,8.7,11.7,156,976.75,21.2,97,21.02,0.0,1002.26,216.6
2018-08-04 22:00,50.63046,-96.9807583333333,9.1,11.9,154,976.62,21.2,97,21.15,0.0,1002.12,72.3
2018-08-04 22:10,50.63046,-96.9807566666667,8.6,10.7,160,976.61,21.2,96,21.03,0.0,1002.11,72.3
2018-08-04 22:20,50.63046,-96.9807566666667,8.3,10.7,159,976.65,21.4,95,21.05,0.0,1002.15,72.3
2018-08-04 22:30,50.63046,-96.98076,8.8,11.1,162,976.77,21.5,93,21.22,0.0,1002.28,72.3
2018-08-04 22:40,50.63046,-96.98076,9.4,12.0,157,976.66,21.6,93,21.25,0.0,1002.18,72.3
2018-08-04 22:50,50.63046,-96.9807616666667,8.7,10.3,161,976.80,21.7,93,21.28,0.0,1002.34,72.3
2018-08-04 23:00,50.630455,-96.980765,9.0,10.8,165,976.97,21.8,92,21.29,0.0,1002.50,90.0
2018-08-04 23:10,50.6304833333333,-96.9807866666667,9.4,11.3,165,976.89,22.1,87,21.29,0.0,1002.40,90.0
2018-08-04 23:20,50.63046,-96.980765,9.9,12.1,170,976.87,22.1,86,21.31,0.0,1002.38,90.0
2018-08-04 23:30,50.6304566666667,-96.980765,10.2,11.9,176,977.02,22.3,83,21.34,0.0,1002.53,90.0
2018-08-04 23:40,50.63046,-96.9807666666667,10.2,12.3,177,977.07,22.2,84,21.34,0.0,1002.58,90.0
2018-08-04 23:50,50.6304583333333,-96.9807666666667,14.2,28.4,220,978.06,22.4,74,21.35,0.0,1003.59,90.0
